This is the latest recevied weather packets stored in our database for station/object IU3NMQ-10. If no packets are shown the sender has not sent any weather packets the latest 10 day(s).
| Time | Temp. | Humidity | Pressure | Rain* | Wind** | Luminosity | Snow |
|---|---|---|---|---|---|---|---|
| 1788014870 | 32.78° C | 52% | 1009 hPa | - | - | - | - |
| 1788013969 | 32.78° C | 53% | 1008.9 hPa | - | - | - | - |
| 1788013069 | 32.78° C | 52% | 1009.2 hPa | - | - | - | - |
| 1788012169 | 32.78° C | 53% | 1009.1 hPa | - | - | - | - |
| 1788011269 | 33.89° C | 52% | 1009.2 hPa | - | - | - | - |
| 1788010369 | 33.33° C | 52% | 1009.3 hPa | - | - | - | - |
| 1788009469 | 33.89° C | 52% | 1009.4 hPa | - | - | - | - |
| 1788008569 | 33.89° C | 52% | 1009.4 hPa | - | - | - | - |
| 1788007772 | 33.89° C | 53% | 1009.4 hPa | - | - | - | - |
| 1788007709 | 33.89° C | 53% | 1009.4 hPa | - | - | - | - |
| 1788007669 | 33.89° C | 53% | 1009.4 hPa | - | - | - | - |
| 1788006993 | 34.44° C | 53% | 1009.5 hPa | - | - | - | - |
| 1788006768 | 34.44° C | 53% | 1009.5 hPa | - | - | - | - |
| 1788006043 | 33.89° C | 55% | 1009.7 hPa | - | - | - | - |
| 1788005868 | 33.89° C | 55% | 1009.7 hPa | - | - | - | - |
| 1788004968 | 33.89° C | 55% | 1009.7 hPa | - | - | - | - |
| 1788004068 | 34.44° C | 54% | 1009.8 hPa | - | - | - | - |
| 1788003213 | 33.89° C | 56% | 1010 hPa | - | - | - | - |
| 1788003168 | 33.89° C | 56% | 1010 hPa | - | - | - | - |
| 1788002268 | 34.44° C | 53% | 1010.1 hPa | - | - | - | - |
| 1788001418 | 34.44° C | 55% | 1010.1 hPa | - | - | - | - |
| 1788001368 | 34.44° C | 55% | 1010.1 hPa | - | - | - | - |
| 1788000476 | 33.89° C | 56% | 1010.2 hPa | - | - | - | - |
| 1787999567 | 33.33° C | 57% | 1010.3 hPa | - | - | - | - |
| 1787998667 | 32.78° C | 58% | 1010.3 hPa | - | - | - | - |
* Rain since midnight (hover to see other rain measurements)
** Current wind speed in m/s (hover to see current wind gust speed)